RH
82 78 74 68 70 61 45 33 26 22 18 17 14 11 10 8 7 6 6 6 8 14 17 21 24 24 36 28 20 24 21 20 22 31 25 20 18 17 17 15 22 20 26 28 31 30 28
70 75 75 74 76 73 68 52 39 25 19 16 14 14 12 10 8 8 7 7 8 10 15 21 25 25 32 22 27 24 21 23 29 27 20 21 17 17 19 20 22 27 28 30 32 31 31
78 79 79 79 74 71 68 51 42 32 27 23 18 16 15 14 10 8 8 7 8 13 14 18 25 38 30 22 29 30 26 31 30 29 21 26 23 22 20 26 26 28 30 32 32 31 31
85 89 90 90 90 87 77 73 70 55 44 32 25 22 20 16 13 10 8 8 8 11 20 21 22 39 24 25 33 28 28 28 29 29 29 30 26 24 24 25 27 26 26 25 25 31 31
96 95 96 94 93 94 94 87 76 74 62 60 61 52 33 26 18 12 9 8 9 13 23 28 34 31 22 27 29 30 31 25 26 28 27 24 25 23 28 25 22 24 17 22 29 29 34
100 98 98 99 98 94 98 100 94 83 78 71 67 59 48 31 22 14 11 11 16 26 34 36 28 27 22 22 30 33 30 32 23 25 26 25 23 23 23 20 20 13 21 15 18 28 30
99 99 94 97 100 100 94 94 95 98 88 84 78 74 67 50 28 14 14 31 22 27 25 18 13 16 21 29 34 30 29 27 22 22 23 24 22 22 17 17 14 10 10 13 10 21 31
92 88 86 93 99 98 98 96 91 93 100 95 91 85 78 68 27 15 33 28 47 60 29 16 22 20 27 31 27 27 28 25 24 24 17 25 22 14 13 17 16 17 14 12 11 20 29
63 66 69 73 75 76 89 90 89 87 96 100 97 91 85 76 20 29 43 53 66 66 36 17 25 24 26 29 23 22 26 24 23 22 20 23 14 16 16 18 21 20 15 13 13 26 29
43 40 40 36 35 40 52 79 85 84 93 99 100 97 85 78 29 33 37 58 65 67 29 20 31 33 33 30 29 30 28 26 24 23 18 20 16 17 18 18 16 18 12 15 16 27 25
59 54 50 47 46 41 44 74 88 95 98 100 100 100 98 86 59 26 38 55 64 56 58 25 31 32 33 32 31 35 30 32 26 24 25 22 23 28 26 18 14 17 22 18 20 21 25
93 87 70 65 56 48 46 53 80 81 85 96 96 98 99 89 77 33 28 41 54 40 68 23 32 34 35 33 31 30 29 27 28 29 27 25 24 29 23 26 24 22 24 25 26 25 41
71 75 78 72 67 60 51 50 47 74 80 81 81 87 99 98 70 70 45 43 48 51 21 21 28 34 31 29 31 33 31 34 30 54 33 25 27 25 30 30 30 27 26 34 38 42 33
72 72 75 78 75 71 68 60 52 45 51 68 75 88 99 98 91 86 34 36 72 44 32 23 29 33 32 21 26 31 29 30 24 23 28 32 37 28 30 25 28 32 25 32 32 30 22
80 73 72 71 79 78 80 76 68 56 56 83 100 97 98 78 80 45 44 71 61 43 27 28 24 29 27 26 29 29 31 26 18 23 28 20 20 26 29 25 25 30 37 22 29 24 28
86 84 78 73 66 71 71 75 78 70 62 84 92 100 88 79 61 54 66 77 54 33 29 35 50 37 42 39 35 29 24 19 25 19 20 20 21 26 31 32 30 29 24 33 31 34 30
84 80 80 79 68 66 65 64 67 83 71 90 96 78 83 80 68 62 91 66 52 44 35 34 42 47 52 56 45 41 36 28 21 26 20 21 23 27 34 39 30 36 33 30 27 24 30
93 91 90 86 81 82 68 62 60 78 73 86 83 71 91 76 86 91 91 72 61 58 44 45 48 56 58 56 58 56 48 38 27 29 30 24 29 35 23 22 26 24 25 23 32 27 27
94 95 96 85 83 82 76 64 62 67 83 92 73 65 95 83 83 84 66 68 60 56 50 54 72 72 78 93 96 72 63 46 35 36 44 34 38 46 36 26 26 32 29 28 22 25 36
94 93 93 87 81 77 74 73 64 68 86 91 80 78 95 91 89 76 64 56 69 78 76 69 76 74 85 100 82 93 65 53 42 38 55 49 62 49 50 35 32 30 28 31 31 42 32
91 93 91 94 85 80 76 73 74 64 85 88 80 64 56 91 98 89 85 99 100 98 83 68 91 76 75 87 72 73 64 72 77 72 74 77 86 66 63 54 49 36 34 31 38 35 36
85 87 92 91 91 84 80 76 77 64 83 91 78 74 58 68 59 92 97 100 93 82 76 84 99 71 66 96 78 86 74 79 91 82 78 100 90 80 90 62 51 47 44 50 33 32 35
88 82 83 92 91 87 78 78 74 73 76 90 70 75 76 65 63 85 95 76 63 63 66 62 66 73 92 80 76 84 93 96 94 99 99 99 94 95 90 60 67 87 81 68 64 43 39
85 88 82 88 89 84 80 79 78 82 74 90 82 80 82 80 68 65 56 54 54 54 86 77 75 100 96 97 99 99 99 97 97 96 97 98 97 96 92 91 94 54 51 64 72 64 54
88 89 83 81 86 83 81 79 76 84 73 92 91 91 87 94 76 85 83 71 75 90 99 88 86 99 100 100 95 92 66 91 86 95 98 98 98 96 94 86 67 61 61 58 66 80 86
91 90 87 75 80 83 84 84 80 81 80 83 95 94 93 100 80 55 63 59 78 76 84 94 98 96 100 94 94 88 68 63 72 80 80 90 97 96 94 95 89 55 43 38 77 91 63
90 89 86 84 88 88 86 85 85 86 82 82 85 95 94 99 90 65 83 93 97 100 100 88 93 93 93 88 88 84 67 86 90 89 84 87 92 93 91 95 93 87 72 93 96 95 88
94 90 87 84 88 84 82 87 86 89 83 84 80 90 99 100 97 92 88 98 100 98 90 88 88 97 90 90 92 73 80 82 87 83 91 90 92 91 94 94 93 85 92 93 93 92 77
87 90 86 84 83 88 84 88 92 93 88 81 90 96 100 99 100 100 100 100 98 99 96 100 92 91 99 93 88 95 90 83 72 88 77 92 93 92 94 93 95 93 92 88 60 53 47
Wind_Speed
12 13 13 13 14 16 16 15 14 13 12 12 13 14 15 17 18 20 21 21 19 17 14 13 12 12 5 5 5 3 4 4 3 3 6 7 8 6 9 4 4 8 3 2 3 5 7
11 12 13 14 15 16 16 16 16 16 15 16 15 16 17 17 18 18 18 19 18 18 14 10 11 8 4 7 0 3 4 2 3 5 5 5 5 4 2 3 6 2 4 4 6 7 7
12 13 13 14 15 17 17 17 17 17 16 17 17 18 18 18 19 20 20 20 17 15 13 8 8 6 6 10 2 4 4 1 3 5 6 4 3 6 3 3 4 7 4 5 8 9 6
11 13 15 15 15 16 17 17 18 18 17 18 19 19 20 20 21 21 21 20 19 16 10 6 4 2 7 4 3 3 4 3 2 2 2 0 3 2 5 6 5 6 4 6 13 12 6
12 13 14 15 18 18 18 17 18 19 19 20 21 21 21 21 22 23 23 21 20 11 5 5 2 3 6 4 2 2 2 5 2 1 1 1 2 2 4 7 7 9 10 14 7 15 7
12 13 15 16 17 17 18 20 19 19 19 21 22 23 23 23 23 24 22 17 6 1 1 1 2 4 5 2 3 2 1 1 3 3 3 5 5 8 9 12 12 13 16 13 14 14 17
11 12 14 14 14 15 16 17 18 19 20 21 22 24 26 25 27 19 19 6 3 4 4 7 8 11 1 2 3 6 4 3 4 6 6 9 9 14 19 19 20 15 17 17 12 9 13
13 14 14 14 14 15 17 19 19 19 19 20 21 23 26 28 25 13 11 4 4 4 10 13 15 12 4 1 4 7 6 6 6 12 11 5 16 18 13 9 18 16 18 19 11 6 12
14 15 16 16 16 17 15 18 19 20 21 20 20 22 25 28 12 10 9 5 5 4 6 3 2 3 2 7 6 5 9 4 9 14 16 17 12 5 10 11 14 19 20 17 18 6 13
14 14 15 16 17 17 17 16 15 17 17 18 19 20 22 26 3 10 3 10 7 4 5 4 3 2 3 2 4 2 5 5 6 7 15 15 18 13 10 14 16 20 17 18 17 6 10
16 16 16 16 17 17 16 16 16 17 18 17 17 18 18 16 10 7 9 10 7 3 6 3 4 1 1 5 2 5 4 5 12 9 5 8 6 9 15 19 14 15 4 9 13 15 17
16 17 16 17 17 16 17 15 15 17 16 16 14 17 15 9 9 6 15 13 3 4 8 4 4 5 4 6 4 4 5 4 1 8 15 19 1 6 14 1 7 5 4 3 5 9 11
16 15 16 16 16 17 16 16 15 15 16 15 14 14 11 9 4 11 13 5 5 7 1 3 1 2 4 4 5 8 10 10 8 5 9 10 21 7 7 7 6 12 10 4 6 6 10
17 16 15 16 16 16 17 17 17 17 16 16 17 13 10 9 11 8 3 2 8 7 11 5 4 3 6 3 8 8 6 10 19 16 8 6 7 21 16 18 10 20 17 7 8 11 13
16 16 16 16 14 14 16 17 18 18 18 17 14 10 7 5 5 5 2 5 6 4 5 7 12 12 17 6 4 4 10 17 9 19 12 10 11 6 6 7 9 7 12 16 17 19 9
18 17 17 17 16 17 17 17 18 19 18 18 9 4 5 7 5 5 3 9 11 5 5 5 10 10 18 18 8 4 8 3 6 13 18 8 16 9 6 2 9 9 4 7 7 7 16
19 19 18 18 16 16 17 17 18 17 16 13 5 4 3 4 5 2 6 8 12 10 9 5 13 16 17 17 15 16 11 13 6 6 8 10 12 5 3 11 16 8 9 9 5 9 8
18 18 18 19 19 17 15 15 15 15 14 7 5 5 2 8 3 1 4 4 2 4 8 9 7 10 16 17 18 18 19 18 4 2 7 5 5 13 19 6 4 14 16 22 9 13 9
18 19 18 17 19 18 16 16 15 11 10 7 3 4 2 1 6 7 9 10 7 8 10 4 3 4 3 5 6 13 12 8 11 6 7 1 7 13 18 9 2 8 15 16 21 12 21
19 19 19 19 19 17 17 16 14 11 8 3 3 3 2 2 2 10 15 16 7 2 5 6 5 9 8 5 11 8 13 9 1 4 3 4 14 19 17 10 3 5 11 19 19 13 27
20 19 19 20 20 20 19 19 15 11 7 4 3 5 5 4 5 10 8 1 3 5 7 2 4 14 9 6 14 19 16 16 12 17 6 4 13 19 28 29 24 14 13 12 22 30 19
21 20 21 21 21 21 20 19 17 11 8 6 4 3 5 10 10 9 7 5 11 12 9 5 9 13 13 9 13 21 22 18 13 5 7 6 9 14 25 27 22 22 23 22 18 21 21
21 21 21 21 22 23 20 18 19 14 9 6 7 10 5 8 10 6 4 12 12 7 7 15 15 11 13 16 12 14 12 15 15 8 8 7 5 5 15 14 17 15 31 24 25 18 13
23 21 22 23 23 24 23 20 19 19 15 13 11 6 5 9 11 14 18 18 18 16 14 10 11 6 2 4 8 12 16 19 17 23 16 10 11 7 11 3 8 6 3 1 12 22 20
24 23 22 24 25 26 24 22 20 21 18 18 17 8 3 6 8 11 14 14 13 9 12 14 9 1 2 2 4 7 6 4 8 13 12 15 10 4 5 10 9 13 2 3 2 2 6
24 23 23 25 27 27 25 23 23 22 20 16 18 19 6 4 10 18 16 14 11 11 6 5 3 2 1 3 3 4 8 9 5 3 1 2 1 3 3 6 5 7 7 8 3 3 10
24 23 24 26 30 29 27 26 25 22 19 16 14 18 11 4 5 7 5 5 2 1 3 3 2 1 2 3 4 5 8 2 4 7 5 2 2 9 11 8 2 6 10 9 5 4 10
23 23 24 27 28 29 28 26 23 21 18 15 12 17 16 2 2 3 2 3 1 3 3 0 4 2 3 3 3 3 4 2 3 2 4 2 2 2 3 4 5 12 4 4 6 6 5
23 24 24 26 25 18 16 15 17 18 17 17 12 14 19 3 1 0 1 3 3 1 3 3 3 1 2 3 2 3 3 4 6 4 2 1 4 3 3 4 3 4 3 5 7 3 5
Wind_Direction
9 13 15 14 12 11 8 9 10 11 12 10 8 4 2 358 355 352 349 346 343 340 336 332 330 337 338 248 257 249 309 312 302 268 258 256 249 237 241 233 207 242 176 152 141 169 188
12 10 6 6 6 5 3 5 4 3 1 358 359 357 355 353 349 346 344 342 340 332 326 325 323 336 289 271 281 292 307 301 315 261 246 245 287 260 266 242 244 86 181 162 169 160 166
11 13 13 10 4 360 358 1 360 358 357 355 353 352 350 349 345 341 337 334 329 323 315 310 318 336 255 260 321 318 323 288 289 278 257 255 274 241 169 188 154 153 175 207 201 185 175
357 356 357 357 356 352 350 351 352 352 351 352 351 349 347 343 340 338 334 329 317 310 298 285 300 295 269 266 266 296 303 261 274 284 277 281 254 199 278 116 163 212 242 229 170 178 165
340 339 340 341 341 341 343 343 344 346 345 346 347 348 345 342 338 335 330 323 311 300 273 280 256 215 268 314 257 240 303 283 232 207 7 155 209 229 174 219 223 210 251 221 198 197 158
322 324 325 326 322 330 335 337 337 337 340 342 344 345 346 342 337 334 332 318 329 46 139 177 235 249 210 203 171 180 205 229 273 193 176 213 224 220 223 218 232 239 228 256 232 195 208
314 313 317 318 323 321 323 325 329 329 332 336 340 341 342 344 337 338 342 320 266 194 211 242 291 262 259 162 185 180 161 193 223 230 227 203 230 223 229 232 256 286 280 247 249 152 204
333 332 329 327 318 317 319 319 321 322 325 329 334 337 340 343 338 348 360 29 31 343 299 249 253 259 262 288 269 211 168 190 202 238 221 214 238 249 274 292 243 253 260 257 255 166 218
324 325 324 323 325 324 325 320 317 320 322 324 330 336 340 344 348 9 36 33 333 325 263 246 220 238 196 203 245 236 196 197 229 249 237 247 258 356 237 244 237 242 247 254 253 175 238
325 324 325 326 326 327 325 323 320 315 315 321 323 328 335 343 13 342 21 340 331 312 277 199 164 140 172 214 220 157 226 244 203 260 256 261 267 248 238 240 230 252 243 253 266 225 254
323 323 324 326 329 330 331 330 326 327 321 322 327 323 331 349 321 343 323 327 320 275 298 84 149 113 167 229 48 172 179 187 243 221 186 236 245 235 245 247 234 260 308 248 243 247 262
325 326 327 330 331 329 328 326 323 323 321 323 322 321 322 336 329 311 331 326 288 241 242 207 158 168 202 202 207 131 198 225 339 259 237 248 248 263 238 341 244 108 161 182 236 251 248
327 322 322 327 328 326 325 322 318 313 321 321 317 309 309 306 308 311 334 332 272 237 221 170 326 209 256 218 216 206 195 200 202 203 233 236 232 210 205 205 196 206 191 230 230 211 252
324 325 319 318 323 326 326 324 320 318 315 310 310 302 281 275 284 295 354 323 246 295 280 57 340 273 253 290 232 211 240 247 223 235 276 257 255 197 200 218 195 202 207 209 246 235 265
309 314 317 315 317 320 323 328 327 325 322 324 323 297 258 240 246 169 192 213 250 252 330 340 314 277 281 219 262 241 236 250 261 200 215 247 244 140 218 187 212 172 223 245 281 275 267
303 301 306 310 313 313 315 322 327 330 325 326 298 283 233 238 184 170 207 234 238 223 300 265 280 283 289 299 283 261 263 310 253 242 226 270 281 176 153 207 239 233 289 202 214 252 252
295 296 295 292 298 305 312 313 316 328 334 335 289 266 68 164 153 188 234 246 272 261 256 269 262 265 277 282 274 280 276 307 296 348 258 251 241 209 153 200 201 195 217 224 282 228 257
305 297 292 288 284 292 304 314 312 318 332 311 286 259 99 139 195 225 228 230 344 271 267 239 240 248 264 266 279 275 265 262 57 309 287 258 280 262 247 193 260 250 235 217 226 228 239
305 308 307 300 290 285 290 300 314 302 320 303 255 275 143 182 246 225 228 251 240 262 259 277 277 248 307 276 276 249 277 308 320 266 262 279 241 265 245 202 183 231 224 236 238 256 255
305 305 305 301 297 297 290 290 306 298 299 268 285 242 156 210 289 261 274 276 274 249 245 238 235 259 247 229 243 264 275 285 81 288 333 286 250 255 251 251 355 228 229 224 223 224 246
305 303 304 306 303 291 282 279 286 293 279 238 231 258 253 202 221 231 251 238 235 256 224 273 254 251 255 265 288 276 275 276 266 254 232 232 254 249 260 265 269 260 268 272 224 239 242
297 301 302 297 298 294 286 272 268 284 277 242 275 256 251 273 270 224 213 197 245 243 235 236 232 272 283 270 267 289 293 284 272 267 247 185 261 255 256 256 255 253 253 251 256 256 252
290 294 293 293 290 290 285 276 260 264 250 245 244 261 267 268 277 258 208 236 252 253 240 248 276 292 276 273 282 282 283 278 262 261 210 191 233 247 257 264 254 257 238 237 240 238 240
284 285 291 292 288 286 280 274 264 252 244 244 256 281 267 270 258 261 255 258 262 269 255 266 291 239 258 340 285 261 252 256 251 250 233 237 228 244 271 282 233 261 63 255 239 248 231
281 281 285 285 285 286 278 272 268 251 252 246 250 246 257 260 264 278 275 272 288 273 266 269 265 323 30 330 281 289 274 254 237 234 229 225 245 246 247 242 285 289 40 331 252 60 24
275 278 281 285 283 283 275 269 265 257 249 249 250 242 248 265 235 254 268 270 271 267 265 235 108 13 108 249 251 272 289 308 290 258 102 316 300 290 241 266 254 39 10 344 282 240 10
274 275 281 285 289 284 273 276 268 251 246 241 257 234 237 257 243 232 228 247 179 188 260 256 239 239 202 241 251 253 273 328 278 313 351 354 235 235 247 261 283 2 349 330 248 11 346
269 273 280 283 290 288 275 266 260 240 243 234 257 243 222 225 237 214 147 201 129 202 256 82 268 172 191 242 256 277 267 293 287 241 280 262 274 237 229 249 264 5 342 11 318 334 343
263 268 277 281 291 279 280 262 243 241 241 241 250 241 223 165 290 360 31 213 177 216 309 188 307 164 271 283 252 285 274 273 286 272 132 255 359 316 11 3 12 12 40 330 316 343 81